Regional Weather Roundup
Issued by NWS Charleston, SC

Current Version | Previous Version | Text Only | Print | Product List | Glossary Off
Versions: 1 2 3 4 5 6 7 8 9 10 11 12 13 14 15 16 17 18 19 20 21 22 23 24 25 26 27 28 29 30 31 32 33 34 35 36 37 38 39 40 41 42 43 44 45 46 47 48 49 50

287
ASUS42 KCHS 292128
RWRCHS

REGIONAL WEATHER ROUNDUP
NATIONAL WEATHER SERVICE CHARLESTON SC
500 PM EDT FRI APR 29 2016

NOTE: "FAIR" INDICATES FEW OR NO CLOUDS BELOW 12,000 FEET WITH NO
SIGNIFICANT WEATHER AND/OR OBSTRUCTIONS TO VISIBILITY.

NOT ALL STATIONS ARE QUALITY CONTROLLED. USE DATA WITH CAUTION...
ESPECIALLY DEWPOINT OBSERVATIONS.

SCZ027-030-031-034>040-042>050-292200-
...SOUTHEAST SOUTH CAROLINA...

CITY           SKY/WX    TMP DP  RH WIND       PRES   REMARKS
N CHARLESTON   MOSUNNY   85  59  41 E14       29.93F
WATERFRONT PRK   N/A     76  68  76 SE8       29.92S
MOUNT PLEASANT FAIR      79  66  65 E9G17     29.94S
JOHNS ISLAND   FAIR      81  66  61 E9G17     29.94S
PINOPOLIS        N/A     90  64  43 VRB3      29.86S HX  91
MONCKS CORNER  FAIR      84  52  32 CALM      29.92S
SUMMERVILLE    FAIR      90  63  40 SE6       29.92F HX  90
BEAUFORT MCAS  MOSUNNY   87  65  47 SE5       29.92F
BEAUFORT ARPT  FAIR      86  55  35 SE8       29.92S
HILTON HEAD IS SUNNY     82  61  47 SE9       29.95S
WALTERBORO     PTCLDY    91  54  27 SE6       29.91F
ALLENDALE      FAIR      90  55  31 VRB3      29.90S

...SOUTHERN MIDLANDS AND PEE DEE...

CITY           SKY/WX    TMP DP  RH WIND       PRES   REMARKS
GEORGETOWN     FAIR      73  68  83 E10       29.95F
KINGSTREE      FAIR      86  55  35 W3        29.92F
ORANGEBURG     SUNNY     89  55  31 VRB5      29.91F
BARNWELL       FAIR      91  55  29 CALM      29.91F
AIKEN          FAIR      90  48  24 CALM      29.95S
MANNING        NOT AVBL
COLUMBIA       MOSUNNY   90  49  24 N8        29.91F
SUMTER         SUNNY     87  58  37 W7        29.90F
FLORENCE       SUNNY     86  61  42 S6        29.92F
MYRTLE BEACH   MOSUNNY   73  63  68 SE10      29.97F
N MYRTLE BEACH SUNNY     73  65  75 SE8       29.95F

$$

GAZ063-065-086>088-099>101-113>116-118-119-134>141-150-292200-
...SOUTHEAST GEORGIA...

CITY           SKY/WX    TMP DP  RH WIND       PRES   REMARKS
SAVANNAH ARPT  MOSUNNY   89  60  37 E9        29.91F
HUNTER AAF     SUNNY     88  62  41 SE7       29.89F
FORT STEWART   SUNNY     91  57  31 CALM      29.88F
STATESBORO     SUNNY     95  62  33 W5        29.90F HX  95
SYLVANIA       CLEAR     91  58  32 NW3       29.91F HX  90
CLAXTON        FAIR      90  60  36 CALM      29.90F

...CSRA...CENTRAL AND FAR SOUTHEAST GEORGIA...

CITY           SKY/WX    TMP DP  RH WIND       PRES   REMARKS
THOMSON        SUNNY     91  58  33 CALM      29.96S
AUGUSTA-BUSH   SUNNY     89  53  29 VRB3      29.90F
AUGUSTA-DANIEL SUNNY     92  51  24 CALM      29.92F
SWAINSBORO     FAIR      90  54  29 W3        29.92F
VIDALIA        SUNNY     90  55  31 E3        29.91F
EASTMAN        FAIR      90  54  29 S3        29.93F
HAZLEHURST     FAIR      91  55  29 NE3       29.90F
ALMA           SUNNY     90  60  36 E5        29.91F
WAYCROSS       SUNNY     89  64  43 CALM      29.91F HX  90
JESUP          FAIR      91  61  35 CALM      29.90F HX  91
BAXLEY         FAIR      90  57  33 S5        29.91F
BRUNSWICK      SUNNY     91  59  33 E10       29.92F HX  90
SAINT SIMONS   SUNNY     83  66  56 SE12      29.92F

$$

SCZ027-028-034-036>038-045-046-048>050-GAZ119-141-292200-
...LAKE AND SUPPLEMENTAL COASTAL OBSERVATIONS...

STATION/POSITION TIME  TEMP    WIND        PRES    WAVE   SWELL
                       AIR SEA DIR/SP/G            HT/PER HT/PER/DIR
                 (UTC) (F)     (DEG/KT/KT) (MB)    (FT/S) (FT/S/D)
WINYAH BAY       2045   72     110/ 10     1013.0F
LAKE MURRAY      2100   85     190/  5/  5 1012.5F
ACE BASIN NERRS  2000   86     150/  3     1014.0S
FORT PULASKI     2100   82 72   90/  9/ 12 1013.7F
SAPELO ISLAND    2100   89     130/  4     1013.0S

$$

ANZ835-935-AMZ111-154-330-350-352-354-370-450-454-472-292200-
...C-MAN AND BUOY OBSERVATIONS...

STATION/POSITION TIME  TEMP    WIND        PRES    WAVE   SWELL
                       AIR SEA DIR/SP/G            HT/PER HT/PER/DIR
                 (UTC) (F)     (DEG/KT/KT) (MB)    (FT/S) (FT/S/D)
BUOY 41004       2050   72 73   70/ 10/ 12 1013.9R   2/ 9   2/ 9
BUOY 41008       NOT AVBL
FOLLY BEACH CMAN 2100   74     110/ 10/ 11 1014.3S
CAPERS NEARSHORE 2108   72 71  120/ 10/ 14 1013.7S
FRIPP NEARSHORE  2108   77 75  140/  6/  8 1013.0F


STATION/POSITION TIME  TEMP    WIND        PRES    WAVE   SWELL
                       AIR SEA DIR/SP/G            HT/PER HT/PER/DIR
                 (UTC) (F)     (DEG/KT/KT) (MB)    (FT/S) (FT/S/D)
5E ST. MARYS GA  2021      75                N/A     1/10
FRYING PAN BUOY  2100   69 70   50/ 12/ 14 1014.1F
BUOY 41025       2050   64 75   10/ 16/ 19 1013.9R   3/ 6   2/ 50/ 8
CAPE LOOKOUT NC  2100   70     300/ 11/ 13 1014.1R
BUOY 41002       2050   72 71  210/ 16/ 17 1012.6F   3/ 5   2/ 80/10
BUOY 41010       2020   77 77  210/  8/  8 1014.3F
ST AUGUSTINE FL  2100   74 71  130/  6/  7 1014.4F


$$




USA.gov is the U.S. government's official web portal to all federal, state and local government web resources and services.